| time (UTC) | temp F | wind direction | speed knots | gust knots | rain 1hr in | rain 24hr in | rain mn in | humidity % | barometer mb |
| 20260506134559 | 62 | 119 | 0.9 | 2.6 | 0.02 | 0.02 | 0.02 | 79 | 1013.0 |
| 20260506133538 | 63 | 126 | 0.9 | 1.7 | 0.01 | 0.01 | 0.01 | 77 | 1012.9 |
| 20260506132613 | 64 | 128 | 0.9 | 1.7 | 0.00 | 0.01 | 0.01 | 76 | 1012.9 |
| 20260506131533 | 64 | 136 | 0.9 | 4.3 | 0.00 | 0.01 | 0.01 | 75 | 1012.9 |
| 20260506130544 | 63 | 164 | 1.7 | 5.2 | 0.00 | 0.01 | 0.01 | 75 | 1012.7 |
| 20260506125538 | 63 | 121 | 1.7 | 4.3 | 0.00 | 0.01 | 0.01 | 76 | 1012.7 |
| 20260506124559 | 63 | 152 | 0.9 | 2.6 | 0.00 | 0.01 | 0.01 | 77 | 1012.7 |
| 20260506123539 | 62 | 75 | 1.7 | 2.6 | 0.01 | 0.01 | 0.01 | 77 | 1012.6 |
| 20260506122539 | 62 | 91 | 1.7 | 4.3 | 0.01 | 0.01 | 0.01 | 78 | 1012.5 |
| 20260506121518 | 62 | 136 | 1.7 | 3.5 | 0.01 | 0.01 | 0.01 | 78 | 1012.6 |
| 20260506120519 | 62 | 118 | 0.9 | 1.7 | 0.01 | 0.01 | 0.01 | 77 | 1012.5 |
| 20260506115559 | 63 | 57 | 0.9 | 1.7 | 0.01 | 0.01 | 0.01 | 76 | 1012.5 |
| 20260506114620 | 63 | 125 | 0.9 | 1.7 | 0.00 | 0.00 | 0.00 | 75 | 1012.2 |
| 20260506113540 | 63 | 129 | 0.9 | 2.6 | 0.00 | 0.00 | 0.00 | 75 | 1012.1 |
| 20260506112520 | 63 | 116 | 0.9 | 2.6 | 0.00 | 0.00 | 0.00 | 75 | 1012.2 |
| 20260506111520 | 62 | 117 | 0.9 | 2.6 | 0.00 | 0.00 | 0.00 | 75 | 1012.1 |
| 20260506110620 | 62 | 135 | 1.7 | 2.6 | 0.00 | 0.00 | 0.00 | 75 | 1012.1 |
| 20260506105540 | 62 | 114 | 0.9 | 3.5 | 0.00 | 0.00 | 0.00 | 75 | 1012.1 |
| 20260506104601 | 62 | 126 | 1.7 | 2.6 | 0.00 | 0.00 | 0.00 | 75 | 1011.9 |
| 20260506103520 | 62 | 124 | 1.7 | 2.6 | 0.00 | 0.00 | 0.00 | 75 | 1011.8 |
| 20260506102520 | 62 | 85 | 1.7 | 5.2 | 0.00 | 0.00 | 0.00 | 75 | 1011.9 |
| 20260506101621 | 62 | 98 | 0.9 | 1.7 | 0.00 | 0.00 | 0.00 | 75 | 1012.1 |
| 20260506100521 | 62 | 100 | 1.7 | 2.6 | 0.00 | 0.00 | 0.00 | 75 | 1012.0 |
| 20260506095521 | 62 | 120 | 0.9 | 1.7 | 0.00 | 0.00 | 0.00 | 75 | 1012.2 |
| 20260506094622 | 62 | 123 | 0.9 | 1.7 | 0.00 | 0.00 | 0.00 | 75 | 1012.0 |
| 20260506093521 | 62 | 84 | 0.9 | 1.7 | 0.00 | 0.00 | 0.00 | 75 | 1012.1 |
| 20260506092542 | 62 | 119 | 0.9 | 2.6 | 0.00 | 0.00 | 0.00 | 75 | 1012.2 |
| 20260506091522 | 63 | 96 | 0.9 | 2.6 | 0.00 | 0.00 | 0.00 | 75 | 1012.2 |
| 20260506090522 | 63 | 105 | 1.7 | 3.5 | 0.00 | 0.00 | 0.00 | 75 | 1012.4 |
| 20260506085522 | 63 | 127 | 0.9 | 1.7 | 0.00 | 0.00 | 0.00 | 75 | 1012.2 |
| 20260506084542 | 62 | 125 | 1.7 | 2.6 | 0.00 | 0.00 | 0.00 | 75 | 1012.3 |
| 20260506083558 | 62 | 138 | 1.7 | 2.6 | 0.00 | 0.00 | 0.00 | 75 | 1012.4 |
| 20260506082523 | 63 | 107 | 0.9 | 2.6 | 0.00 | 0.00 | 0.00 | 75 | 1012.6 |
| 20260506081523 | 63 | 95 | 0.9 | 2.6 | 0.00 | 0.00 | 0.00 | 75 | 1012.8 |
| 20260506080603 | 63 | 143 | 1.7 | 3.5 | 0.00 | 0.00 | 0.00 | 75 | 1012.6 |
| 20260506073523 | 63 | 91 | 0.9 | 2.6 | 0.00 | 0.00 | 0.00 | 74 | 1012.6 |
| 20260506072624 | 63 | 125 | 1.7 | 2.6 | 0.00 | 0.00 | 0.00 | 74 | 1012.6 |
| 20260506071544 | 63 | 98 | 1.7 | 2.6 | 0.00 | 0.00 | 0.00 | 73 | 1012.7 |
| 20260506070524 | 64 | 104 | 1.7 | 4.3 | 0.00 | 0.00 | 0.00 | 73 | 1012.7 |
| 20260506061525 | 64 | 131 | 1.7 | 2.6 | 0.00 | 0.00 | 0.00 | 71 | 1012.8 |
| 20260506060525 | 65 | 96 | 1.7 | 3.5 | 0.00 | 0.00 | 0.00 | 70 | 1012.9 |
| 20260506050526 | 65 | 112 | 0.9 | 2.6 | 0.00 | 0.00 | 0.00 | 66 | 1013.4 |
| 20260506044526 | 66 | 124 | 2.6 | 4.3 | 0.00 | 0.00 | 0.00 | 63 | 1013.5 |
| 20260506043526 | 66 | 104 | 1.7 | 4.3 | 0.00 | 0.00 | 0.00 | 62 | 1013.5 |
| 20260506042540 | 66 | 113 | 1.7 | 4.3 | 0.00 | 0.00 | 0.00 | 60 | 1013.4 |
| 20260506041547 | 66 | 108 | 1.7 | 2.6 | 0.00 | 0.00 | 0.00 | 58 | 1013.3 |
| 20260506040527 | 66 | 115 | 1.7 | 2.6 | 0.00 | 0.00 | 0.00 | 57 | 1013.2 |
| 20260506035627 | 66 | 104 | 1.7 | 4.3 | 0.00 | 0.00 | 0.00 | 56 | 1013.2 |
| 20260506034608 | 66 | 89 | 1.7 | 2.6 | 0.00 | 0.00 | 0.00 | 55 | 1013.1 |
| 20260506033527 | 67 | 107 | 0.9 | 1.7 | 0.00 | 0.00 | 0.00 | 54 | 1013.1 |
| 20260506032547 | 67 | 105 | 0.9 | 1.7 | 0.00 | 0.00 | 0.00 | 53 | 1013.1 |
| 20260506031608 | 67 | 94 | 1.7 | 3.5 | 0.00 | 0.00 | 0.00 | 53 | 1013.1 |
| 20260506030528 | 67 | 102 | 1.7 | 2.6 | 0.00 | 0.00 | 0.00 | 53 | 1013.2 |
| 20260506025608 | 67 | 106 | 1.7 | 2.6 | 0.00 | 0.00 | 0.00 | 53 | 1013.3 |
| 20260506024543 | 67 | 115 | 1.7 | 3.5 | 0.00 | 0.00 | 0.00 | 52 | 1013.3 |
| 20260506023528 | 67 | 121 | 0.9 | 1.7 | 0.00 | 0.00 | 0.00 | 51 | 1013.4 |
| 20260506022528 | 68 | 111 | 1.7 | 1.7 | 0.00 | 0.00 | 0.00 | 51 | 1013.4 |
| 20260506021529 | 68 | 108 | 0.9 | 3.5 | 0.00 | 0.00 | 0.00 | 50 | 1013.3 |
| 20260506020549 | 68 | 123 | 0.9 | 1.7 | 0.00 | 0.00 | 0.00 | 50 | 1013.3 |
| 20260506015549 | 68 | 107 | 1.7 | 3.5 | 0.00 | 0.00 | 0.00 | 49 | 1013.3 |
| 20260506014558 | 69 | 109 | 0.9 | 2.6 | 0.00 | 0.00 | 0.00 | 48 | 1013.2 |
| 20260506013541 | 70 | 111 | 0.0 | 1.7 | 0.00 | 0.00 | 0.00 | 47 | 1013.1 |
| 20260506012521 | 70 | 70 | 0.9 | 2.6 | 0.00 | 0.00 | 0.00 | 47 | 1013.1 |
| 20260506011639 | 70 | 105 | 0.9 | 3.5 | 0.00 | 0.00 | 0.00 | 47 | 1013.0 |
| 20260506004619 | 71 | 101 | 1.7 | 3.5 | 0.00 | 0.00 | 0.00 | 44 | 1012.6 |
| 20260506003519 | 72 | 114 | 0.9 | 3.5 | 0.00 | 0.00 | 0.00 | 43 | 1012.6 |
| 20260506002519 | 72 | 112 | 0.9 | 2.6 | 0.00 | 0.00 | 0.00 | 43 | 1012.6 |
| 20260506001700 | 73 | 119 | 1.7 | 3.5 | 0.00 | 0.00 | 0.00 | 42 | 1012.4 |
| 20260506000600 | 73 | 99 | 0.9 | 3.5 | 0.00 | 0.00 | 0.00 | 41 | 1012.3 |
| 20260505235519 | 74 | 112 | 1.7 | 3.5 | 0.00 | 0.00 | 0.00 | 41 | 1012.3 |
| 20260505234520 | 74 | 110 | 0.9 | 2.6 | 0.00 | 0.00 | 0.00 | 40 | 1012.3 |
| 20260505233520 | 75 | 117 | 1.7 | 3.5 | 0.00 | 0.00 | 0.00 | 40 | 1012.2 |
| 20260505232520 | 76 | 115 | 0.9 | 2.6 | 0.00 | 0.00 | 0.00 | 39 | 1012.1 |
| 20260505231520 | 78 | 100 | 1.7 | 4.3 | 0.00 | 0.00 | 0.00 | 37 | 1012.1 |
| 20260505230538 | 79 | 121 | 1.7 | 4.3 | 0.00 | 0.00 | 0.00 | 35 | 1012.1 |
| 20260505225558 | 79 | 132 | 1.7 | 5.2 | 0.00 | 0.00 | 0.00 | 35 | 1012.2 |
| 20260505224518 | 78 | 133 | 1.7 | 3.5 | 0.00 | 0.00 | 0.00 | 36 | 1012.3 |
| 20260505223518 | 78 | 131 | 0.9 | 4.3 | 0.00 | 0.00 | 0.00 | 36 | 1012.4 |
| 20260505222518 | 79 | 114 | 1.7 | 5.2 | 0.00 | 0.00 | 0.00 | 35 | 1012.4 |
| 20260505221538 | 79 | 96 | 2.6 | 7.0 | 0.00 | 0.00 | 0.00 | 34 | 1012.4 |
| 20260505220518 | 79 | 134 | 1.7 | 5.2 | 0.00 | 0.00 | 0.00 | 35 | 1012.4 |
| 20260505215539 | 79 | 114 | 2.6 | 7.8 | 0.00 | 0.00 | 0.00 | 35 | 1012.4 |
| 20260505214539 | 79 | 119 | 1.7 | 4.3 | 0.00 | 0.00 | 0.00 | 36 | 1012.5 |
| 20260505213539 | 80 | 143 | 1.7 | 6.1 | 0.00 | 0.00 | 0.00 | 34 | 1012.4 |
| 20260505212519 | 80 | 116 | 1.7 | 6.1 | 0.00 | 0.00 | 0.00 | 34 | 1012.5 |
| 20260505211519 | 79 | 84 | 0.9 | 5.2 | 0.00 | 0.00 | 0.00 | 36 | 1012.6 |
| 20260505210537 | 79 | 112 | 2.6 | 7.0 | 0.00 | 0.00 | 0.00 | 36 | 1012.5 |
| 20260505204559 | 78 | 116 | 1.7 | 7.0 | 0.00 | 0.00 | 0.00 | 36 | 1012.8 |
| 20260505203520 | 80 | 167 | 1.7 | 7.8 | 0.00 | 0.00 | 0.00 | 35 | 1012.6 |
| 20260505202517 | 80 | 129 | 2.6 | 9.6 | 0.00 | 0.00 | 0.00 | 33 | 1012.8 |
| 20260505201557 | 81 | 107 | 2.6 | 7.0 | 0.00 | 0.00 | 0.00 | 33 | 1012.8 |
| 20260505200701 | 81 | 114 | 1.7 | 6.1 | 0.00 | 0.00 | 0.00 | 33 | 1012.9 |
| 20260505195517 | 82 | 76 | 1.7 | 5.2 | 0.00 | 0.00 | 0.00 | 33 | 1013.0 |
| 20260505194518 | 81 | 275 | 1.7 | 5.2 | 0.00 | 0.00 | 0.00 | 34 | 1013.1 |
| 20260505193541 | 81 | 107 | 2.6 | 5.2 | 0.00 | 0.00 | 0.00 | 33 | 1013.2 |
| 20260505192521 | 82 | 140 | 2.6 | 7.8 | 0.00 | 0.00 | 0.00 | 34 | 1013.3 |
| 20260505191538 | 81 | 126 | 1.7 | 4.3 | 0.00 | 0.00 | 0.00 | 33 | 1013.4 |
| 20260505190542 | 82 | 98 | 2.6 | 7.0 | 0.00 | 0.00 | 0.00 | 33 | 1013.6 |
| 20260505185539 | 80 | 305 | 1.7 | 5.2 | 0.00 | 0.00 | 0.00 | 36 | 1013.8 |
| 20260505184559 | 79 | 143 | 2.6 | 5.2 | 0.00 | 0.00 | 0.00 | 35 | 1013.8 |
| 20260505183536 | 80 | 131 | 2.6 | 6.1 | 0.00 | 0.00 | 0.00 | 35 | 1013.9 |
| 20260505182539 | 80 | 133 | 1.7 | 6.1 | 0.00 | 0.00 | 0.00 | 35 | 1014.0 |
| 20260505181519 | 80 | 83 | 1.7 | 4.3 | 0.00 | 0.00 | 0.00 | 36 | 1014.1 |
| 20260505180519 | 80 | 121 | 2.6 | 7.8 | 0.00 | 0.00 | 0.00 | 35 | 1014.3 |
| 20260505175537 | 80 | 131 | 1.7 | 5.2 | 0.00 | 0.00 | 0.00 | 36 | 1014.5 |
| 20260505174600 | 80 | 97 | 1.7 | 7.8 | 0.00 | 0.00 | 0.00 | 36 | 1014.5 |
| 20260505173606 | 79 | 133 | 2.6 | 6.1 | 0.00 | 0.00 | 0.00 | 37 | 1014.5 |
| 20260505172520 | 79 | 141 | 1.7 | 6.1 | 0.00 | 0.00 | 0.00 | 37 | 1014.8 |
| 20260505171517 | 79 | 311 | 1.7 | 7.0 | 0.00 | 0.00 | 0.00 | 38 | 1014.9 |
| 20260505170558 | 78 | 140 | 1.7 | 6.1 | 0.00 | 0.00 | 0.00 | 37 | 1015.0 |
| 20260505165521 | 78 | 113 | 2.6 | 7.0 | 0.00 | 0.00 | 0.00 | 37 | 1015.1 |
| 20260505164538 | 78 | 283 | 2.6 | 6.1 | 0.00 | 0.00 | 0.00 | 39 | 1015.2 |
| 20260505163518 | 77 | 314 | 2.6 | 7.0 | 0.00 | 0.00 | 0.00 | 40 | 1015.3 |
| 20260505162618 | 77 | 113 | 1.7 | 5.2 | 0.00 | 0.00 | 0.00 | 42 | 1015.4 |
| 20260505161538 | 76 | 134 | 1.7 | 3.5 | 0.00 | 0.00 | 0.00 | 44 | 1015.5 |
| 20260505160539 | 76 | 309 | 2.6 | 7.0 | 0.00 | 0.00 | 0.00 | 45 | 1015.6 |
| 20260505152639 | 74 | 132 | 0.9 | 3.5 | 0.00 | 0.00 | 0.00 | 47 | 1015.9 |
| 20260505151559 | 74 | 101 | 1.7 | 7.0 | 0.00 | 0.00 | 0.00 | 48 | 1015.9 |
| 20260505150520 | 72 | 166 | 1.7 | 4.3 | 0.00 | 0.00 | 0.00 | 49 | 1016.0 |
| 20260505140538 | 68 | 87 | 0.9 | 3.5 | 0.00 | 0.00 | 0.00 | 55 | 1015.8 |